Apalachicola, FL

1:26 PM EDT on October 20, 2017 (GMT -0400)
Apalachicola Municipal

Weather History for KAAF - June, 2013

Change the Weather History Date:

Wednesday, June 5, 2013

  Actual Average Record
Temperature  
Mean Temperature 81 °F 79 °F  
Max Temperature 87 °F 88 °F 95 °F (1982)
Min Temperature 75 °F 70 °F 62 °F (1954)
Degree Days  
Heating Degree Days 0    
Month to date heating degree days 0  
Since 1 June heating degree days 0  
Since 1 July heating degree days 1129  
Cooling Degree Days 16    
Month to date cooling degree days 80  
Year to date cooling degree days 461  
Since 1 June cooling degree days 80  
Growing Degree Days 31 (Base 50)    
Moisture  
Dew Point 72 °F    
Average Humidity 72    
Maximum Humidity 82    
Minimum Humidity 61    
Precipitation  
Precipitation T in 0.14 in 4.64 in (1995)
Month to date precipitation T 0.67  
Year to date precipitation 19.28 20.05  
Sea Level Pressure  
Sea Level Pressure 29.94 in    
Wind  
Wind Speed 9 mph (SSE)    
Max Wind Speed 18 mph    
Max Gust Speed 25 mph    
Visibility 3 miles    
Events      
T = Trace of Precipitation, MM = Missing Value Source: NWS Daily Summary

Daily Weather History Graph

Daily Weather History Graph

Search for Another Location

Airport or City:

Trip Planner

Search our weather history database for the weather conditions in past years. The results will help you decide how hot, cold, wet, or windy it might be!

Date:

Astronomy

Jun. 05, 2013 Rise Set
Actual Time 6:39 AM EDT 8:38 PM EDT
Civil Twilight 6:12 AM EDT 9:05 PM EDT
Nautical Twilight 5:39 AM EDT 9:38 PM EDT
Astronomical Twilight 5:04 AM EDT 10:13 PM EDT
Moon 4:32 AM EDT (6/5) 6:12 PM EDT (6/5)
Length of Visible Light 14h 53m
Length of Day
13h 58m
Waning Crescent, 8% of the Moon is Illuminated
Jun 5
Waning Crescent
Jun 8
New
Jun 16
First Quarter
Jun 23
Full
Jun 30
Last Quarter

Hourly Weather History & Observations

Time (EDT) Temp. Heat Index Dew Point Humidity Pressure Visibility Wind Dir Wind Speed Gust Speed Precip Events Conditions
12:53 AM 79.0 °F - 72.0 °F 79% 29.99 in - South 8.1 mph - N/A   Partly Cloudy
1:53 AM 79.0 °F - 70.0 °F 74% 29.98 in - SSW 4.6 mph - N/A   Clear
2:53 AM 79.0 °F - 69.1 °F 72% 29.97 in - South 8.1 mph - N/A   Clear
3:53 AM 78.1 °F - 69.1 °F 74% 29.96 in - East 3.5 mph - N/A   Clear
4:53 AM 78.1 °F - 70.0 °F 76% 29.96 in - SE 3.5 mph - N/A   Overcast
5:53 AM 79.0 °F - 71.1 °F 77% 29.96 in - SSE 5.8 mph - 0.00 in   Overcast
6:53 AM 77.0 °F - 71.1 °F 82% 29.96 in - Calm Calm - 0.00 in   Mostly Cloudy
7:06 AM 75.2 °F - 71.6 °F 89% 29.96 in 2.0 mi Calm Calm - N/A   Haze
7:53 AM 80.1 °F 83.8 °F 72.0 °F 76% 29.94 in 2.0 mi SSE 5.8 mph - N/A   Haze
8:30 AM 82.4 °F 87.2 °F 71.6 °F 70% 29.96 in 1.8 mi SE 8.1 mph - N/A   Haze
8:53 AM 82.0 °F 87.4 °F 73.0 °F 74% 29.96 in 1.8 mi SE 9.2 mph - N/A   Haze
9:09 AM 82.4 °F 88.2 °F 73.4 °F 74% 29.97 in 1.8 mi SE 11.5 mph - N/A   Haze
9:24 AM 82.4 °F 88.2 °F 73.4 °F 74% 29.97 in 1.8 mi SE 9.2 mph - N/A   Haze
9:39 AM 82.4 °F 87.2 °F 71.6 °F 70% 29.97 in - South 8.1 mph - N/A   Mostly Cloudy
9:53 AM 82.0 °F 87.4 °F 73.0 °F 74% 29.98 in - SSE 9.2 mph - N/A   Overcast
10:26 AM 82.4 °F 88.2 °F 73.4 °F 74% 29.98 in - SE 9.2 mph - N/A   Overcast
10:53 AM 82.9 °F 88.8 °F 73.0 °F 72% 29.98 in 9.0 mi SE 10.4 mph - N/A   Overcast
11:22 AM 84.2 °F 90.9 °F 73.4 °F 70% 29.98 in - SSE 12.7 mph - N/A   Mostly Cloudy
11:38 AM 84.2 °F 90.9 °F 73.4 °F 70% 29.97 in - SSE 10.4 mph - N/A   Scattered Clouds
11:53 AM 84.0 °F 90.2 °F 73.0 °F 69% 29.98 in - SSE 11.5 mph - N/A   Scattered Clouds
12:53 PM 86.0 °F 93.0 °F 73.0 °F 65% 29.97 in - SE 15.0 mph 20.7 mph N/A   Partly Cloudy
1:53 PM 87.1 °F 95.4 °F 73.9 °F 65% 29.96 in - SE 11.5 mph 19.6 mph N/A   Mostly Cloudy
2:53 PM 86.0 °F 93.0 °F 73.0 °F 65% 29.94 in - SE 13.8 mph 20.7 mph N/A   Mostly Cloudy
3:40 PM 86.0 °F 93.4 °F 73.4 °F 66% 29.92 in - SE 13.8 mph 20.7 mph N/A   Scattered Clouds
3:53 PM 86.0 °F 92.2 °F 72.0 °F 63% 29.92 in - SSE 15.0 mph - N/A   Scattered Clouds
4:28 PM 84.2 °F 89.6 °F 71.6 °F 66% 29.92 in - SSE 11.5 mph 18.4 mph N/A   Overcast
4:39 PM 82.4 °F 87.2 °F 71.6 °F 70% 29.92 in - SE 11.5 mph - N/A   Overcast
4:53 PM 82.9 °F 88.0 °F 72.0 °F 69% 29.92 in - SSE 10.4 mph - N/A   Overcast
5:53 PM 82.9 °F 88.0 °F 72.0 °F 69% 29.90 in - SE 10.4 mph - N/A   Partly Cloudy
6:49 PM 82.4 °F 87.2 °F 71.6 °F 70% 29.89 in - SSE 9.2 mph - N/A   Mostly Cloudy
6:53 PM 82.0 °F 86.7 °F 72.0 °F 71% 29.90 in - SSE 8.1 mph - N/A   Mostly Cloudy
7:11 PM 80.6 °F 84.6 °F 71.6 °F 74% 29.89 in - South 11.5 mph - N/A   Scattered Clouds
7:53 PM 80.1 °F 82.9 °F 69.1 °F 69% 29.88 in - South 18.4 mph 25.3 mph N/A   Scattered Clouds
8:53 PM 80.1 °F 82.9 °F 69.1 °F 69% 29.88 in - SE 9.2 mph 20.7 mph N/A   Clear
9:53 PM 80.1 °F 83.2 °F 70.0 °F 71% 29.90 in - SE 8.1 mph - N/A   Overcast
10:53 PM 80.1 °F 82.7 °F 68.0 °F 67% 29.91 in - SE 6.9 mph - N/A   Overcast
11:53 PM 80.1 °F 82.9 °F 69.1 °F 69% 29.91 in - SE 10.4 mph 16.1 mph N/A   Overcast